sat.trackr.live / text

‹ back to catalog

STARLINK-5517

NORAD 57249 · 2023-094AH

PAYLOAD ACTIVE UNKNOWN

§ Identity

Operator
Country
US
Launch date
2023-07-07
Launch site
AFWTR
Launch vehicle
Mass (kg)
RCS (m²)

Purposes: comms

External: N2YO · Heavens-Above · Gunter

§ Orbital elements

Epoch: 2026-05-24T19:17:53.541024Z

Period
94.27 min
Inclination
43.0021°
Eccentricity
0.0001775
Mean motion
15.27570245 rev/d
Perigee alt
481.9 km
Apogee alt
484.3 km
Semi-major
6,861.2 km
B*
-5.0125e-6
RAAN
309.7197°
Arg perigee
242.8322°
Mean anomaly
117.2349°
Rev number
15,888

§ Raw data

STARLINK-55171 57249U 23094AH  26144.80409191 -.00000400  00000+0 -50125-5 0  99972 57249  43.0021 309.7197 0001775 242.8322 117.2349 15.27570245158883

JSON: /api/v1/satellites/57249 · /tle

For live sub-satellite position, see the globe view (requires WebGL).

§ Visibility from observer

Set your observer location to see the next 7 days of passes ≥ 10°. The values pass through the URL so the page stays shareable.

No JS? Fill the form by hand. The geolocation button needs JavaScript.